{"data":{"norad_id":58083,"epoch":"2026-05-24T23:28:52.394880Z","epoch_age_seconds":91112,"freshness":"FRESH","line1":"1 58083U 23160J   26144.97838420  .00003445  00000+0  13455-3 0  9990","line2":"2 58083  43.0021  10.4114 0000937 264.1178  95.9567 15.27603881144578","mean_motion":15.27603881,"eccentricity":9.37e-5,"inclination_deg":43.0021,"raan_deg":10.4114,"arg_perigee_deg":264.1178,"mean_anomaly_deg":95.9567,"bstar":0.00013455,"rev_number":14457,"period_min":94.265275043511,"perigee_km":482.33470222912,"apogee_km":483.62047510304,"semimajor_km":6861.1145886661,"source":"CELESTRAK","updated_at":"2026-05-25T13:38:18.522498Z"}}